Regional Weather Roundup
Issued by NWS Cleveland, OH

Home | Current Version | Previous Version | Text Only | Print | Product List | Glossary Off
Versions: 1 2 3 4 5 6 7 8 9 10 11 12 13 14 15 16 17 18 19 20 21 22 23 24 25 26 27 28 29 30 31 32 33 34 35 36 37 38 39 40 41 42 43 44 45 46 47 48 49 50

000
ASUS41 KCLE 171410
RWRCLE
OHIO REGIONAL WEATHER ROUNDUP
NATIONAL WEATHER SERVICE CLEVELAND, OH
1000 AM EDT WED SEP 17 2014

NOTE: "FAIR" INDICATES FEW OR NO CLOUDS BELOW 12,000 FEET WITH NO
SIGNIFICANT WEATHER AND/OR OBSTRUCTIONS TO VISIBILITY.

OHZ001>008-015>018-024>027-034-035-043-044-171500-
   NORTHWEST OHIO

CITY           SKY/WX    TMP DP  RH WIND       PRES   REMARKS
DEFIANCE       SUNNY     56  49  77 SW3       30.08F
FINDLAY        SUNNY     56  49  77 CALM      30.07S
TOLEDO EXPRESS SUNNY     54  47  77 W5        30.07F
TOLEDO EXEC    SUNNY     55  46  71 SW5       30.08S
LIMA           FAIR      56  47  71 CALM      30.08S
$$

OHZ009>014-019>023-028>033-038-089-171500-
   NORTHEAST OHIO

CITY           SKY/WX    TMP DP  RH WIND       PRES   REMARKS
CLE-HOPKINS    MOSUNNY   57  49  74 S8        30.08F
CLE-LAKEFRONT  SUNNY     60  48  64 S9        30.05F
CUY CO. ARPT   MOSUNNY   61  50  67 SW9       30.07S
LORAIN-ELYRIA  SUNNY     59  51  75 SW6       30.08S
ASHTABULA      SUNNY     57  50  77 SW8       30.08S
AKRON-CANTON   MOSUNNY   59  49  69 SW5       30.07S
WOOSTER        SUNNY     58  51  78 CALM      30.08F
MANSFIELD      PTSUNNY   57  51  80 S5        30.07F
YOUNGSTOWN     MOSUNNY   57  50  77 S6        30.07S
$$

OHZ042-051>053-060>062-070>072-077>081-171500-
  SOUTHWEST OHIO

CITY           SKY/WX    TMP DP  RH WIND       PRES   REMARKS
CINC-COVINGTON CLOUDY    55  52  88 N3        30.07S
CINC-LUNKEN    CLOUDY    56  53  90 CALM      30.08F
HAMILTON       CLOUDY    56  52  86 N3        30.09S
DAYTON         CLOUDY    55  51  86 CALM      30.09S
WRIGHT-PAT AFB CLOUDY    54  43  66 N1        30.07F
DAYTON GENERAL CLOUDY    55  51  86 CALM      30.07F
WILMINGTON     CLOUDY    55  50  83 NE3       30.07F
$$

OHZ036-037-039>041-045>050-054>059-063>069-073>076-082>088-171500-
  CENTRAL AND SOUTHEAST OHIO

CITY           SKY/WX    TMP DP  RH WIND       PRES   REMARKS
COLUMBUS       CLOUDY    60  50  69 CALM      30.07S
OSU AIRPORT    CLOUDY    58  51  78 NE3       30.07F
BOLTON FIELD   CLOUDY    57  52  82 CALM      30.07F
RICKENBACK AFB CLOUDY    56  51  84 CALM      30.06F
NEWARK         PTSUNNY   58  52  80 VRB3      30.07S
MARION         PTSUNNY   55  50  83 SW3       30.07F
LANCASTER      CLOUDY    58  53  84 CALM      30.07S
ZANESVILLE     CLOUDY    59  51  75 NE3       30.07S
NEW PHILLY     MOSUNNY   54  52  93 CALM      30.08F
$$



USA.gov is the U.S. government's official web portal to all federal, state and local government web resources and services.